Weather Roundup
Issued by NWS

Home | Current Version | Previous Version | Text Only | Print | Product List | Glossary On
Versions: 1 2 3 4 5 6 7 8 9 10 11 12 13 14 15 16 17 18 19 20 21 22 23 24 25 26 27 28 29 30 31 32 33 34 35 36 37 38 39 40 41 42 43 44 45 46 47 48 49 50
000
NZUS93 KARX 040359
HRRWXR

CURRENT HOURLY OBSERVATIONS ACROSS
MUCH OF THE UPPER MISSISSIPPI VALLEY
NATIONAL WEATHER SERVICE LA CROSSE WI
1100 PM CDT THU SEP 03 2015


...SOUTHEAST MINNESOTA...


CITY           SKY/WX    TMP DP  RH WIND       PRES   REMARKS
ROCHESTER      CLEAR     75  73  93 SE8       29.94R FOG
ROCHESTER/MAYO FAIR      76  74  92 E8        29.93S
WINONA         PTCLDY    77  68  73 SE7       29.93S
AUSTIN         PTCLDY    75  72  88 SE3       29.92S
ALBERT LEA     MOCLDY    77  73  88 SE5       29.91R
DODGE CENTER   PTCLDY    73  73 100 E5        29.93S FOG
PRESTON        CLEAR     76  73  90 E6        29.95R
OWATONNA       CLEAR     75  72  88 SE5       29.92R
FARIBAULT      CLEAR     75  73  94 E6        29.91S
$$

...ELSEWHERE IN MINNESOTA...


CITY           SKY/WX    TMP DP  RH WIND       PRES   REMARKS
MINNEAPOLIS    CLEAR     76  70  82 E12       29.90S
INTNL FALLS    CLEAR     64  60  87 SE8       29.92S
DULUTH         CLEAR     58  52  80 E5        29.99S
RED WING       CLEAR     73  70  88 E7        29.91R
REDWOOD FALLS  CLEAR     78  75  90 E7        29.85S
MANKATO        CLEAR     79  73  83 SE8       29.89R
WORTHINGTON    CLEAR     73  70  88 SE7       29.87S
FAIRMONT       CLEAR     75  66  73 S6        29.88S
$$

...SOUTHWEST WISCONSIN...


CITY           SKY/WX    TMP DP  RH WIND       PRES   REMARKS
LA CROSSE      CLEAR     76  69  79 SE6       29.93R
PRAIRIE DU CHI MOCLDY    76  73  91 CALM      29.92R
BOSCOBEL       PTCLDY    77  69  76 VRB3      29.94R
LONE ROCK      NOT AVBL
PLATTEVILLE    MOCLDY    77  75  93 E10       29.95R
FORT MC COY    PTCLDY    72  64  76 CALM      29.97R
CAMP DOUGLAS   PTCLDY    68  68 100 E2        29.97S FOG
VIROQUA          N/A     72  70  93 E10G16    29.97R
WIS DELLS      PTCLDY    69  65  88 CALM      29.97S
$$

...ELSEWHERE IN WISCONSIN...


CITY           SKY/WX    TMP DP  RH WIND       PRES   REMARKS
MILWAUKEE      MOCLDY    67  64  90 N3        29.96R
MADISON        MOCLDY    70  65  84 NE3       29.97R
GREEN BAY      CLEAR     65  63  93 N6        29.97S
EAU CLAIRE     NOT AVBL
BLACK RVR FLS  CLOUDY    71  65  82 CALM      29.96S
MEDFORD        CLEAR     64  64  99 CALM      30.01R
WAUSAU         CLEAR     64  63  96 CALM      29.99R
WIS RAPIDS     CLEAR     65  62  90 CALM      30.00R
MARSHFIELD     CLEAR     66  62  87 E5        30.00R
RICE LAKE      CLEAR     68  65  90 E7        29.98S
$$

...NORTHEAST IOWA...


CITY           SKY/WX    TMP DP  RH WIND       PRES   REMARKS
DECORAH        CLEAR     77  73  88 SE5       29.93R
MASON CITY     PTCLDY    74  72  93 S7        29.92R
CHARLES CITY   PTCLDY    73  73 100 E3        29.93R
OELWEIN        CLEAR    N/A N/A N/A MISG        N/A
$$

...ELSEWHERE IN IOWA...


CITY           SKY/WX    TMP DP  RH WIND       PRES   REMARKS
DES MOINES     PTCLDY    79  70  74 SE7       29.89S
IOWA CITY      PTCLDY    76  72  87 CALM      29.93R
FORT DODGE     CLEAR     77  70  78 SE5       29.90R
$$

...NORTHERN ILLINOIS...


CITY           SKY/WX    TMP DP  RH WIND       PRES   REMARKS
CHICAGO-OHARE  MOCLDY    72  67  84 E9        29.96R
CHICAGO-MIDWAY MOCLDY    75  66  73 NE9       29.95R
MOLINE         PTCLDY    77  71  82 CALM      29.92S
ROCKFORD       PTCLDY    73  67  81 E6        29.96R
PEORIA         PTCLDY    79  70  74 CALM      29.94S
$$

NOTE: "FAIR" INDICATES FEW OR NO CLOUDS BELOW 12,000 FEET WITH NO
SIGNIFICANT WEATHER AND/OR OBSTRUCTIONS TO VISIBILITY. WIND
SPEEDS ARE IN MILES-PER-HOUR.



USA.gov is the U.S. government's official web portal to all federal, state and local government web resources and services.